Weather History for Casper, WY

Change the Weather History Date:

Wednesday, May 8, 2013

  Actual Average Record
Temperature  
Mean Temperature 56 °F 50 °F  
Max Temperature 71 °F 64 °F 84 °F (1987)
Min Temperature 40 °F 35 °F 18 °F (2010)
Degree Days  
Heating Degree Days 9 15  
Month to date heating degree days 157 132  
Since 1 July heating degree days 7020 7174  
Cooling Degree Days 0 0  
Month to date cooling degree days 0 0  
Year to date cooling degree days 0 0  
Growing Degree Days 6 (Base 50)    
Moisture  
Dew Point 31 °F    
Average Humidity 47    
Maximum Humidity 76    
Minimum Humidity 18    
Precipitation  
Precipitation T in 0.07 in 1.66 in (1995)
Month to date precipitation 0.16 0.50  
Year to date precipitation 4.32 3.69  
Snow  
Snow 0.00 in 0.20 in - ()
Month to date snowfall 3.5 1.5  
Since 1 July snowfall 85.7 73.4  
Snow Depth 0.00 in    
Sea Level Pressure  
Sea Level Pressure 29.95 in    
Wind  
Wind Speed 12 mph (NE)    
Max Wind Speed 35 mph    
Max Gust Speed 41 mph    
Visibility 10 miles    
Events Rain    
T = Trace of Precipitation, MM = Missing Value Source: NWS Daily Summary

Daily Weather History Graph

Daily Weather History Graph

Search for Another Location

Airport:

Trip Planner

Search our weather history database for the weather conditions in past years. The results will help you decide how hot, cold, wet, or windy it might be!

Date:

Astronomy

May. 08, 2013 Rise Set
Actual Time 5:50 AM MDT 8:14 PM MDT
Civil Twilight 5:18 AM MDT 8:46 PM MDT
Nautical Twilight 4:39 AM MDT 9:26 PM MDT
Astronomical Twilight 3:55 AM MDT 10:10 PM MDT
Moon 5:02 AM MDT (5/8) 7:14 PM MDT (5/8)
Length of Visible Light 15h 28m
Length of Day
14h 24m
Waning Crescent, 2% of the Moon is Illuminated
May 8
Waning Crescent
May 9
New
May 17
First Quarter
May 24
Full
May 31
Last Quarter

Hourly Weather History & Observations

Time (MDT) Temp. Windchill Dew Point Humidity Pressure Visibility Wind Dir Wind Speed Gust Speed Precip Events Conditions
12:53 AM 46.0 °F 41.4 °F 35.1 °F 66% 29.87 in 10.0 mi WSW 9.2 mph - N/A   Clear
1:53 AM 43.0 °F 37.2 °F 34.0 °F 71% 29.87 in 10.0 mi WSW 10.4 mph - N/A   Clear
2:53 AM 44.1 °F 39.5 °F 34.0 °F 68% 29.86 in 10.0 mi SW 8.1 mph - N/A   Clear
3:53 AM 45.0 °F 40.6 °F 35.1 °F 68% 29.87 in 10.0 mi WSW 8.1 mph - N/A   Overcast
4:53 AM 44.1 °F 40.1 °F 34.0 °F 68% 29.88 in 10.0 mi West 6.9 mph - N/A   Clear
5:53 AM 42.1 °F 38.4 °F 34.0 °F 73% 29.93 in 10.0 mi West 5.8 mph - N/A   Mostly Cloudy
6:53 AM 43.0 °F 41.3 °F 35.1 °F 74% 29.95 in 10.0 mi SW 3.5 mph - N/A   Mostly Cloudy
7:53 AM 48.0 °F - 37.9 °F 68% 29.95 in 10.0 mi South 3.5 mph - N/A   Overcast
8:53 AM 55.9 °F - 36.0 °F 47% 29.94 in 10.0 mi Variable 3.5 mph - N/A   Mostly Cloudy
9:53 AM 63.0 °F - 35.1 °F 35% 29.94 in 10.0 mi NNE 15.0 mph - N/A   Scattered Clouds
10:53 AM 66.0 °F - 26.1 °F 22% 29.93 in 10.0 mi NNE 21.9 mph 28.8 mph N/A   Clear
11:53 AM 66.9 °F - 24.1 °F 20% 29.94 in 10.0 mi NE 12.7 mph 28.8 mph N/A   Partly Cloudy
12:53 PM 66.9 °F - 23.0 °F 19% 29.93 in 10.0 mi NNE 18.4 mph 25.3 mph N/A   Scattered Clouds
1:53 PM 66.0 °F - 24.1 °F 20% 29.94 in 10.0 mi NE 15.0 mph 24.2 mph N/A   Mostly Cloudy
2:53 PM 70.0 °F - 25.0 °F 18% 29.93 in 10.0 mi NE 20.7 mph 25.3 mph N/A   Scattered Clouds
3:53 PM 66.0 °F - 25.0 °F 21% 29.93 in 10.0 mi NNE 21.9 mph 32.2 mph N/A   Mostly Cloudy
4:53 PM 66.9 °F - 25.0 °F 21% 29.93 in 10.0 mi NE 19.6 mph 27.6 mph N/A   Overcast
5:53 PM 66.0 °F - 27.0 °F 23% 29.95 in 10.0 mi NE 18.4 mph 24.2 mph N/A   Overcast
6:53 PM 60.1 °F - 30.9 °F 33% 29.99 in 10.0 mi East 16.1 mph - N/A   Overcast
7:00 PM 60.8 °F - 32.0 °F 34% 30.08 in 10.0 mi East 18.4 mph 26.5 mph 0.00 in Rain Light Rain
7:53 PM 57.0 °F - 34.0 °F 42% 30.00 in 10.0 mi East 8.1 mph - 0.00 in   Mostly Cloudy
8:53 PM 59.0 °F - 30.9 °F 35% 29.98 in 10.0 mi NNE 16.1 mph 21.9 mph N/A   Overcast
9:53 PM 55.9 °F - 34.0 °F 44% 29.99 in 10.0 mi NNE 15.0 mph - N/A   Overcast
10:53 PM 52.0 °F - 34.0 °F 50% 30.01 in 10.0 mi ENE 6.9 mph - N/A   Overcast
11:53 PM 51.8 °F - 35.6 °F 54% 30.14 in 10.0 mi NE 5.8 mph - N/A   Mostly Cloudy